Location: Bush Observatory
(40.2653°N, 94.3194°W)
Time: 03:49:22
(UTC-06:00)

Daily predictions for brighter satellites

Satellite Brightness Start Highest point End
(mag) Time Altitude Azimuth Time Altitude Azimuth Time Altitude Azimuth
CZ-3 R/B 4.5 02:25:56 10° W 03:30:21 45° S 03:40:01 10° SE
SL-16 R/B 4.4 03:57:16 21° E 03:57:16 21° E 03:59:47 10° ESE
USA 229 DEB 4.4 04:13:19 52° E 04:13:19 52° E 04:19:10 10° SE
USA 229 4.4 04:13:22 52° E 04:13:22 52° E 04:19:15 10° SE
DELTA 2 R/B (1) 4.5 05:04:53 37° S 05:05:41 39° SSE 05:10:50 10° E
NOSS 3-1 (C) 4.4 05:01:36 29° NNW 05:05:43 60° NE 05:13:54 10° SE
COSMO-SKYMED 1 3.3 05:10:35 10° SSE 05:14:47 51° ENE 05:16:07 37° NNE
Cosmos 1538 Rocket 4.4 05:13:23 36° N 05:15:33 64° ENE 05:20:51 10° SSE
Cosmos 304 Rocket 4.0 05:22:03 58° S 05:22:03 58° S 05:25:56 10° SSE
Ariane Rocket 4.3 05:19:16 10° NNE 05:24:05 40° E 05:28:52 10° SSE
Cosmos 2233 Rocket 3.8 05:18:35 10° SSW 05:24:49 76° W 05:31:09 10° N
Genesis I 4.1 05:24:37 42° NE 05:24:58 43° NE 05:28:43 10° SE
SL-8 R/B 4.3 05:25:32 44° N 05:26:03 46° NNE 05:30:41 10° E
Cosmos 1500 Rocket 3.7 05:28:39 61° SSW 05:28:39 61° SSW 05:32:25 10° S
Cosmos 2227 4.5 05:23:37 10° S 05:29:09 67° ESE 05:34:45 10° NNE
GPS 2-05 Rocket1 4.4 05:30:13 28° SE 05:30:13 28° SE 05:32:22 10° ESE
Cosmos 1328 4.3 05:31:00 51° S 05:31:00 51° S 05:34:02 10° S
CZ-3 Stage 3 3.2 05:28:58 26° SSW 05:30:22 30° S 05:39:57 10° ESE
SeaSat 1 4.0 05:34:43 10° N 05:36:51 22° NNW 05:36:51 22° NNW
SL-16 R/B 2.4 05:39:13 44° WSW 05:39:18 44° WSW 05:44:39 10° S
OAO 2 Rocket 4.0 05:38:34 35° SW 05:39:24 38° SSW 05:43:57 10° SE
ISS -1.8 05:41:57 28° S 05:41:57 28° S 05:43:48 10° SSE
Cosmos 2346 Rocket 4.3 05:36:25 10° NNW 05:42:28 64° W 05:48:26 10° S
SKYMED 3 4.4 05:40:28 10° S 05:44:47 72° WSW 05:46:30 36° NNW
DMSP B5D1-3 4.5 05:40:08 10° SSE 05:45:15 86° ENE 05:50:24 10° NNW
Cosmos 2297 Rocket 3.7 05:47:14 20° NNW 05:47:14 20° NNW 05:49:46 10° N
Cosmos 968 Rocket 3.7 05:46:55 42° W 05:47:41 45° WNW 05:52:45 10° N
Cosmos 1703 4.0 05:49:47 10° N 05:53:39 53° E 05:57:29 10° SSE
Cosmos 2227 Rocket 4.1 06:00:41 13° NNW 06:00:41 13° NNW 06:01:49 10° NNW
Meteor 1-28 Rocket 3.0 05:55:05 10° S 05:58:50 77° WSW 06:01:21 20° NNW
Cosmos 773 Rocket 3.9 05:57:23 15° NNW 06:01:51 75° WSW 06:07:07 10° S
Cosmos 1271 Rocket 2.8 05:58:13 10° SSW 06:01:56 50° WNW 06:05:38 10° N
PSLV R/B 3.1 06:01:41 54° W 06:02:23 90° SW 06:05:46 10° E
Cosmos 1626 3.0 05:58:44 10° N 06:02:23 50° E 06:06:00 10° SSE
SKYMED 2 3.8 05:58:43 10° S 06:02:51 44° W 06:04:45 27° NW
BREEZE-M DEB (TANK) 4.5 05:53:31 20° WNW 06:03:08 46° WSW 06:07:43 10° SSE
Cosmos 2058 2.8 06:00:42 16° NNW 06:03:51 62° W 06:07:56 10° S
Meteor 1-16 Rocket 4.3 06:01:03 10° SSW 06:06:15 47° WNW 06:11:23 10° N
Meteor 2-12 Rocket 4.4 06:03:38 10° SSW 06:09:45 75° W 06:15:57 10° N
Meteor 1-11 4.3 06:04:18 10° NNW 06:09:59 55° W 06:15:36 10° S
BREEZE-M DEB (TANK) 4.2 06:09:46 17° NNW 06:10:13 18° N 06:11:59 10° NE
Cosmos 1184 Rocket 3.4 06:09:10 10° N 06:12:27 57° E 06:15:42 10° SSE
Cosmos 1340 Rocket 3.0 06:10:40 20° NNW 06:13:03 47° W 06:16:51 10° S
Cosmos 2221 2.5 06:10:37 10° SSW 06:14:52 56° W 06:19:08 10° N
NOSS 3-1 (A) 4.1 06:09:42 13° NW 06:16:49 75° WSW 06:25:12 10° SSE
Cosmos 292 Rocket 3.7 06:12:23 10° NNW 06:17:12 89° WSW 06:22:00 10° SSE
SL-14 R/B 4.2 06:17:06 26° WNW 06:18:06 29° W 06:21:36 10° SSW
Cosmos 1464 Rocket 4.0 06:12:02 10° SSW 06:18:18 64° W 06:24:34 10° N
Cosmos 1666 Rocket 3.8 06:15:02 10° N 06:19:30 75° E 06:23:58 10° SSE
Cosmos 1943 3.6 06:14:49 10° NNW 06:20:31 67° ENE 06:26:10 10° SSE
ATLAS 2AS CENTAUR R/B 3.9 06:17:43 10° NNW 06:25:30 47° NE 06:32:45 10° ESE
SMAP 3.8 06:21:52 10° NNE 06:26:28 56° E 06:31:01 10° S
Cosmos 1356 Rocket 3.3 06:22:35 10° NNW 06:26:40 66° W 06:30:48 10° S
CSL-04 DEB 4.5 06:22:37 10° N 06:26:59 67° WNW 06:31:14 10° SSW
Cosmos 1777 Rocket 4.5 06:23:34 10° SW 06:28:23 37° WNW 06:33:13 10° N
Tiangong 2 1.7 06:25:45 13° SW 06:28:24 52° SSE 06:31:28 10° E
Helios 1B rocket 3.8 06:25:14 10° SE 06:29:04 40° ENE 06:32:56 10° N
ERBS 3.8 06:33:13 18° W 06:34:26 21° SW 06:37:05 10° S
CSL-04 Debris 4.2 06:29:18 10° N 06:34:43 64° WNW 06:40:06 10° SSW
Cosmos 2151 4.3 06:36:01 15° WNW 06:37:43 19° W 06:40:43 10° SW
SPOT 3 Rocket 4.1 06:35:20 10° NNE 06:40:31 63° ESE 06:45:41 10° S
USA 234 3.6 06:35:01 10° ESE 06:41:28 65° NE 06:47:58 10° NW
Cosmos 2263 Rocket 2.3 06:37:19 10° SSW 06:42:59 84° ESE 06:48:43 10° NNE
Cosmos 1603 4.3 06:38:24 10° NW 06:43:29 36° WSW 06:48:35 10° S
IRS-1A Rocket 4.3 06:39:30 10° N 06:45:23 69° WNW 06:51:07 10° SSW
Cosmos 1908 3.2 06:45:03 10° SSW 06:48:49 60° W 06:52:37 10° N
SJ-12 3.9 06:46:08 10° N 06:50:09 58° WNW 06:54:09 10° SSW
COSMO-SKYMED 1 4.3 06:49:06 10° WSW 06:51:14 13° W 06:53:20 10° WNW
DELTA 2 R/B (1) 3.7 06:46:17 10° WSW 06:51:50 78° S 06:57:25 10° E
Cosmos 1470 Rocket 3.9 06:47:47 10° N 06:52:07 68° E 06:56:26 10° SSE
CZ-2C R/B 2.3 06:52:47 10° N 06:57:18 59° WNW 07:01:47 10° SSW
CZ-4 R/B 1.7 06:54:42 10° N 06:58:37 46° WNW 07:02:34 10° SSW
IDEFIX/ARIANE 42P 2.6 06:54:47 10° N 06:59:59 61° WNW 07:05:10 10° SSW
Meteor 1-29 3.3 06:56:44 10° SSE 07:00:12 72° ENE 07:03:42 10° N
CSL-04 Rocket 4.3 06:55:51 10° N 07:00:29 32° WNW 07:05:05 10° SW
Cosmos 1726 3.0 06:58:21 10° S 07:01:56 53° E 07:05:33 10° NNE
Ariane Rocket 4.0 06:58:45 10° NNW 07:02:48 24° WNW 07:06:50 10° WSW
Cosmos 2228 Rocket 3.1 06:59:41 10° SSW 07:04:03 58° W 07:08:25 10° N
GPS 2-05 Rocket1 4.2 07:04:07 10° WSW 07:07:01 29° S 07:09:58 10° SE
SL-8 R/B 4.1 07:04:01 10° WNW 07:08:40 51° SW 07:13:17 10° SE
Cosmos 1300 3.2 07:05:19 10° S 07:09:06 66° E 07:12:54 10° NNE
Iridium 4 Rocket 3.4 07:05:44 10° N 07:10:03 78° E 07:14:43 10° S
Meteor 2-2 Rocket 4.3 07:07:11 10° SSW 07:13:02 78° W 07:18:49 10° N
